Location: Borowce
(50.8255°N, 19.6209°E)
Time: 08:39:05
(UTC+00:00)

CZ-4C R/B - Pass Details

Date: 19 May 2025
Orbit: 425 x 537 km, 98.0° (Epoch: 16 June)

Event Time Altitude Azimuth Distance (km) Brightness Sun altitude
Rises 21:13:14 0° 15° (NNE) 2,617 7.7 -16.8°
Reaches altitude 10° 21:15:23 10° 16° (NNE) 1,708 6.6 -16.9°
Maximum altitude 21:19:03 80° 103° (ESE) 497 2.9 -17.1°
Enters shadow 21:20:12 41° 185° (S) 709 3.4 -17.2°
